"Period start","avg(HW err(1)/warn(2) (#))","avg(Visibility (m))","avg(Weather code (#))","avg(Precip intensity (mm/h))","min(HW err(1)/warn(2) (#))","max(HW err(1)/warn(2) (#))","std(HW err(1)/warn(2) (#))","med(HW err(1)/warn(2) (#))","min(Visibility (m))","max(Visibility (m))","std(Visibility (m))","med(Visibility (m))","min(Weather code (#))","max(Weather code (#))","std(Weather code (#))","med(Weather code (#))","min(Precip intensity (mm/h))","max(Precip intensity (mm/h))","std(Precip intensity (mm/h))","med(Precip intensity (mm/h))"
2016-04-23 00:00:00,2,3035,71,1.12,2,2,0,2,1898,6377,1250,2704,71,71,0,71,0.25,2.60,0.67,1.00
2016-04-23 00:10:00,2,2977,71,1.68,2,2,0,2,1038,8961,2193,2410,71,71,0,71,0.30,3.95,1.15,1.43
2016-04-23 00:20:00,2,2263,71,2.23,2,2,0,2,1323,3917,774,2004,71,71,0,71,0.55,3.50,1.09,2.62
2016-04-23 00:30:00,2,1377,71,2.12,2,2,0,2,1011,1828,285,1298,71,71,0,71,1.30,3.10,0.59,2.15
2016-04-23 00:40:00,2,4015,71,0.89,2,2,0,2,1811,8136,2261,2995,71,71,0,71,0.20,1.90,0.45,0.90
2016-04-23 00:50:00,2,3050,71,1.41,2,2,0,2,1452,7709,1785,2363,71,71,0,71,0.50,3.65,0.91,1.18
2016-04-23 01:00:00,2,2193,71,1.11,2,2,0,2,1515,3307,614,2006,71,71,0,71,0.35,1.80,0.39,1.18
2016-04-23 01:10:00,2,3728,71,0.67,2,2,0,2,1541,5680,1177,3647,71,71,0,71,0.00,1.25,0.45,0.68
2016-04-23 01:20:00,2,15014,43,0.17,2,2,0,2,3112,23626,6640,16148,0,71,35,71,0.00,1.10,0.34,0.00
2016-04-23 01:30:00,2,15434,43,0.02,2,2,0,2,6691,25086,6727,15628,0,71,35,71,0.00,0.10,0.03,0.00
2016-04-23 01:40:00,2,4333,71,0.86,2,2,0,2,2265,9348,2249,3312,71,71,0,71,0.00,2.05,0.69,0.55
2016-04-23 01:50:00,2,5502,71,0.86,2,2,0,2,1379,9769,2379,5392,71,71,0,71,0.00,2.15,0.64,0.65
2016-04-23 02:00:00,2,14506,50,0.08,2,2,0,2,6114,26797,5738,13582,0,71,33,71,0.00,0.50,0.16,0.00
2016-04-23 02:10:00,2,23540,0,0.00,2,2,0,2,15289,30331,4005,23212,0,0,0,0,0.00,0.00,0.00,0.00
2016-04-23 02:20:00,2,24320,0,0.00,2,2,0,2,12792,38711,7206,25016,0,0,0,0,0.00,0.00,0.00,0.00
2016-04-23 02:30:00,2,23451,0,0.00,2,2,0,2,12373,31025,5663,24480,0,0,0,0,0.00,0.00,0.00,0.00
2016-04-23 02:40:00,2,20423,0,0.00,2,2,0,2,7265,32839,8884,19880,0,0,0,0,0.00,0.00,0.00,0.00
2016-04-23 02:50:00,2,21926,0,0.00,2,2,0,2,18441,27178,2793,21188,0,0,0,0,0.00,0.00,0.00,0.00
2016-04-23 03:00:00,2,22845,0,0.00,2,2,0,2,15462,33728,5840,21994,0,0,0,0,0.00,0.00,0.00,0.00
2016-04-23 03:10:00,2,17240,0,0.00,2,2,0,2,8913,22948,4422,17786,0,0,0,0,0.00,0.00,0.00,0.00
2016-04-23 03:20:00,2,10401,38,0.19,2,2,0,2,6303,22578,4653,8314,0,71,28,40,0.00,0.90,0.30,0.05
2016-04-23 03:30:00,2,8714,71,0.30,2,2,0,2,4791,14651,3426,7536,71,71,0,71,0.00,1.00,0.31,0.15
2016-04-23 03:40:00,2,9901,71,0.17,2,2,0,2,3834,22400,5700,7895,71,71,0,71,0.00,0.55,0.18,0.10
2016-04-23 03:50:00,2,17238,7,0.00,2,2,0,2,11333,22085,3702,17272,0,71,21,0,0.00,0.00,0.00,0.00
2016-04-23 04:00:00,2,11035,66,0.33,2,2,0,2,975,31743,8276,8604,0,77,22,71,0.00,2.10,0.65,0.03
2016-04-23 04:10:00,2,1963,71,2.16,2,2,0,2,1256,4040,782,1755,71,71,0,71,0.35,3.50,0.83,2.23
2016-04-23 04:20:00,2,10925,71,0.41,2,2,0,2,2176,24153,6105,10594,71,71,0,71,0.00,2.35,0.81,0.03
2016-04-23 04:30:00,2,14097,74,0.07,2,2,0,2,5314,29250,7492,12298,71,77,3,74,0.00,0.20,0.07,0.03
2016-04-23 04:40:00,2,10484,73,0.06,2,2,0,2,5621,18215,3890,8914,71,77,3,71,0.00,0.15,0.04,0.05
2016-04-23 04:50:00,2,15231,75,0.04,2,2,0,2,8975,26382,5182,14136,71,77,3,77,0.00,0.10,0.04,0.03
2016-04-23 05:00:00,2,8492,72,0.11,2,2,0,2,3870,14133,3652,7192,71,77,2,71,0.00,0.45,0.13,0.10
2016-04-23 05:10:00,2,4911,71,0.38,2,2,0,2,2635,10139,2163,3930,71,71,0,71,0.05,0.95,0.26,0.38
2016-04-23 05:20:00,2,4064,71,0.81,2,2,0,2,1294,9316,2628,3307,71,71,0,71,0.05,1.95,0.63,0.62
2016-04-23 05:30:00,2,7989,71,0.49,2,2,0,2,3249,12844,3132,8524,71,71,0,71,0.00,1.30,0.41,0.47
2016-04-23 05:40:00,2,6038,71,0.60,2,2,0,2,2792,16532,3767,5028,71,71,0,71,0.00,1.25,0.41,0.55
2016-04-23 05:50:00,2,5935,71,0.78,2,2,0,2,2689,14259,3450,4191,71,71,0,71,0.15,1.75,0.52,0.85
2016-04-23 06:00:00,2,5005,71,0.64,2,2,0,2,2603,9194,1772,4338,71,71,0,71,0.00,1.25,0.43,0.75
2016-04-23 06:10:00,2,26099,28,0.01,2,2,0,2,13721,42645,8299,23600,0,71,35,0,0.00,0.10,0.03,0.00
2016-04-23 06:20:00,2,28053,0,0.00,2,2,0,2,22938,34103,3216,27489,0,0,0,0,0.00,0.00,0.00,0.00
2016-04-23 06:30:00,2,27425,21,0.00,2,2,0,2,17071,42013,7862,25633,0,71,33,0,0.00,0.00,0.00,0.00
2016-04-23 06:40:00,2,17929,76,0.04,2,2,0,2,7272,27645,6097,18018,71,77,2,77,0.00,0.20,0.06,0.03
2016-04-23 06:50:00,2,28085,14,0.00,2,2,0,2,17414,39121,6443,27392,0,71,28,0,0.00,0.00,0.00,0.00
2016-04-23 07:00:00,2,27723,0,0.00,2,2,0,2,14711,45146,9184,24098,0,0,0,0,0.00,0.00,0.00,0.00
2016-04-23 07:10:00,2,27420,14,0.00,2,2,0,2,10486,48313,11994,30762,0,71,28,0,0.00,0.00,0.00,0.00
2016-04-23 07:20:00,2,16304,73,0.03,2,2,0,2,9554,27573,4714,15425,71,77,3,71,0.00,0.10,0.04,0.00
2016-04-23 07:30:00,2,28653,23,0.00,2,2,0,2,17407,36958,6023,29405,0,77,35,0,0.00,0.00,0.00,0.00
2016-04-23 07:40:00,2,26255,0,0.00,2,2,0,2,18647,33189,4707,26470,0,0,0,0,0.00,0.00,0.00,0.00
2016-04-23 07:50:00,2,22227,0,0.00,2,2,0,2,15887,29987,4732,20296,0,0,0,0,0.00,0.00,0.00,0.00
2016-04-23 08:00:00,2,24081,0,0.00,2,2,0,2,18311,31560,3915,24397,0,0,0,0,0.00,0.00,0.00,0.00
2016-04-23 08:10:00,2,20865,0,0.00,2,2,0,2,16410,26350,3126,20142,0,0,0,0,0.00,0.00,0.00,0.00
2016-04-23 08:20:00,2,21757,0,0.00,2,2,0,2,17078,29077,3691,20802,0,0,0,0,0.00,0.00,0.00,0.00
2016-04-23 08:30:00,2,25890,0,0.00,2,2,0,2,17467,35550,5803,25376,0,0,0,0,0.00,0.00,0.00,0.00
2016-04-23 08:40:00,2,18844,0,0.00,2,2,0,2,10956,29113,5786,18252,0,0,0,0,0.00,0.00,0.00,0.00
2016-04-23 08:50:00,2,18815,0,0.00,2,2,0,2,8861,23365,3846,19548,0,0,0,0,0.00,0.00,0.00,0.00
2016-04-23 09:00:00,2,16681,50,0.01,2,2,0,2,7825,24317,4625,17952,0,77,33,71,0.00,0.15,0.05,0.00
2016-04-23 09:10:00,2,16441,77,0.04,2,2,0,2,10632,21582,3906,15706,71,78,2,78,0.00,0.20,0.06,0.00
2016-04-23 09:20:00,2,21416,30,0.00,2,2,0,2,16592,31802,4706,19768,0,77,36,0,0.00,0.00,0.00,0.00
2016-04-23 09:30:00,2,26106,0,0.00,2,2,0,2,22498,28795,1793,25990,0,0,0,0,0.00,0.00,0.00,0.00
2016-04-23 09:40:00,2,15142,50,0.11,2,2,0,2,7072,27483,6574,13434,0,71,33,71,0.00,0.35,0.12,0.07
2016-04-23 09:50:00,2,4122,71,0.66,2,2,0,2,2148,6743,1584,4064,71,71,0,71,0.15,2.70,0.72,0.38
2016-04-23 10:00:00,2,5531,71,0.55,2,2,0,2,2596,9750,2360,4828,71,71,0,71,0.05,1.25,0.35,0.53
2016-04-23 10:10:00,2,8372,71,0.31,2,2,0,2,4456,12319,2643,9081,71,71,0,71,0.00,0.50,0.15,0.35
2016-04-23 10:20:00,2,5714,71,0.63,2,2,0,2,4317,10123,1741,5091,71,71,0,71,0.25,1.00,0.26,0.62
2016-04-23 10:30:00,2,6384,71,0.45,2,2,0,2,3465,10580,1961,6154,71,71,0,71,0.10,1.05,0.28,0.38
2016-04-23 10:40:00,2,5008,71,0.86,2,2,0,2,3745,6822,916,4922,71,71,0,71,0.20,2.10,0.52,0.75
2016-04-23 10:50:00,2,5199,71,0.58,2,2,0,2,3656,7587,1108,5015,71,71,0,71,0.15,1.20,0.35,0.48
2016-04-23 11:00:00,2,4009,71,1.05,2,2,0,2,1174,8201,2468,3919,71,71,0,71,0.15,2.45,0.76,0.82
2016-04-23 11:10:00,2,2025,71,1.75,2,2,0,2,1241,4503,931,1648,71,71,0,71,0.75,2.55,0.57,1.93
2016-04-23 11:20:00,2,3506,71,0.99,2,2,0,2,1159,5232,1390,3764,71,71,0,71,0.20,1.90,0.61,0.97
2016-04-23 11:30:00,2,5119,71,0.44,2,2,0,2,2918,6592,1105,4954,71,71,0,71,0.20,1.45,0.35,0.30
2016-04-23 11:40:00,2,3408,71,0.88,2,2,0,2,1530,5900,1237,3411,71,71,0,71,0.15,1.55,0.45,0.75
2016-04-23 11:50:00,2,5178,71,0.62,2,2,0,2,2169,8287,2254,4675,71,71,0,71,0.20,1.45,0.39,0.62
2016-04-23 12:00:00,2,4533,71,0.62,2,2,0,2,1449,6971,1611,4296,71,71,0,71,0.20,1.65,0.45,0.40
2016-04-23 12:10:00,2,1752,71,2.43,2,2,0,2,1031,3288,676,1396,71,71,0,71,0.75,4.10,1.00,2.67
2016-04-23 12:20:00,2,1750,71,2.27,2,2,0,2,1202,2519,441,1622,71,71,0,71,1.35,3.25,0.72,2.38
2016-04-23 12:30:00,2,1698,71,2.04,2,2,0,2,1140,2430,436,1516,71,71,0,71,1.40,2.95,0.46,1.97
2016-04-23 12:40:00,2,2614,71,1.11,2,2,0,2,1362,5275,1377,1842,71,71,0,71,0.35,2.50,0.61,1.20
2016-04-23 12:50:00,2,2697,71,1.03,2,2,0,2,1403,5609,1294,2041,71,71,0,71,0.40,2.00,0.56,0.82
2016-04-23 13:00:00,2,1443,71,2.27,2,2,0,2,1313,1673,124,1430,71,71,0,71,0.90,3.05,0.71,2.60
2016-04-23 13:10:00,2,1510,71,1.97,2,2,0,2,1100,1944,228,1506,71,71,0,71,1.60,2.45,0.28,2.00
2016-04-23 13:20:00,2,1426,71,2.15,2,2,0,2,1169,1737,185,1403,71,71,0,71,1.25,3.30,0.62,2.05
2016-04-23 13:30:00,2,2017,71,1.74,2,2,0,2,975,3380,758,1804,71,71,0,71,0.40,3.20,1.03,1.60
2016-04-23 13:40:00,2,2189,71,1.12,2,2,0,2,1459,3947,696,1949,71,71,0,71,0.30,1.85,0.53,1.12
2016-04-23 13:50:00,2,2268,71,1.58,2,2,0,2,1451,3899,642,2074,71,71,0,71,0.90,2.90,0.52,1.48
2016-04-23 14:00:00,2,4469,71,0.70,2,2,0,2,2370,7352,1823,4243,71,71,0,71,0.10,1.35,0.39,0.55
2016-04-23 14:10:00,2,4144,71,0.89,2,2,0,2,1474,8351,2169,3046,71,71,0,71,0.30,2.00,0.51,0.65
2016-04-23 14:20:00,2,9834,71,0.16,2,2,0,2,5687,12672,2007,10350,71,71,0,71,0.00,0.60,0.16,0.12
2016-04-23 14:30:00,2,7046,71,0.34,2,2,0,2,3000,10226,2141,6925,71,71,0,71,0.05,0.95,0.23,0.30
2016-04-23 14:40:00,2,3905,71,0.93,2,2,0,2,1660,10222,2529,3148,71,71,0,71,0.10,1.80,0.50,0.95
2016-04-23 14:50:00,2,2858,71,1.79,2,2,0,2,1496,6184,1222,2592,71,71,0,71,0.15,2.75,0.69,1.88
2016-04-23 15:00:00,2,2379,71,2.21,2,2,0,2,1727,3931,632,2236,71,71,0,71,1.65,2.80,0.42,2.17
2016-04-23 15:10:00,2,2617,71,2.23,2,2,0,2,1867,3221,487,2557,71,71,0,71,1.50,3.25,0.59,2.05
2016-04-23 15:20:00,2,2635,71,1.46,2,2,0,2,1660,3385,633,2448,71,71,0,71,0.30,3.10,0.85,1.30
2016-04-23 15:30:00,2,2664,71,1.46,2,2,0,2,1523,4903,1088,2254,71,71,0,71,0.10,2.65,0.79,1.50
2016-04-23 15:40:00,2,2113,71,2.27,2,2,0,2,1172,3225,669,2058,71,71,0,71,0.50,3.75,0.95,2.27
2016-04-23 15:50:00,2,2505,71,1.37,2,2,0,2,1635,3235,439,2644,71,71,0,71,0.85,2.05,0.36,1.35
2016-04-23 16:00:00,2,2294,71,1.94,2,2,0,2,1514,3057,523,2225,71,71,0,71,0.70,4.40,1.02,1.50
2016-04-23 16:10:00,2,1619,71,2.09,2,2,0,2,1109,2227,335,1574,71,71,0,71,1.20,3.55,0.65,1.85
2016-04-23 16:20:00,2,2566,71,1.40,2,2,0,2,1642,5044,959,2451,71,71,0,71,0.65,2.50,0.55,1.28
2016-04-23 16:30:00,2,2374,71,1.78,2,2,0,2,1120,3349,701,2614,71,71,0,71,0.50,3.40,0.82,1.73
2016-04-23 16:40:00,2,2129,71,1.97,2,2,0,2,1079,3915,818,1918,71,71,0,71,0.50,3.20,0.87,2.25
2016-04-23 16:50:00,2,4210,71,1.12,2,2,0,2,2346,8376,1535,3824,71,71,0,71,0.30,2.20,0.56,1.23
2016-04-23 17:00:00,2,2222,71,1.51,2,2,0,2,815,4738,1126,1859,71,71,0,71,0.35,4.25,1.09,1.30
2016-04-23 17:10:00,2,2032,71,1.44,2,2,0,2,718,4325,1101,1780,71,71,0,71,0.45,2.55,0.70,1.38
2016-04-23 17:20:00,2,1389,71,2.05,2,2,0,2,783,2459,505,1362,71,71,0,71,0.75,4.60,1.02,1.68
2016-04-23 17:30:00,2,1332,71,2.19,2,2,0,2,730,2370,441,1268,71,71,0,71,0.80,3.95,0.80,2.10
2016-04-23 17:40:00,2,987,71,3.55,2,2,0,2,746,1232,144,1000,71,72,0,71,1.80,5.25,0.91,3.65
2016-04-23 17:50:00,2,1208,71,2.66,2,2,0,2,808,1897,339,1135,71,72,0,71,1.55,4.15,0.68,2.60
2016-04-23 18:00:00,2,1527,71,2.38,2,2,0,2,1143,2008,259,1498,71,71,0,71,1.25,3.90,0.74,2.33
2016-04-23 18:10:00,2,1196,71,2.61,2,2,0,2,548,2215,487,1067,71,72,0,71,0.95,4.05,1.08,2.90
2016-04-23 18:20:00,2,1307,71,2.07,2,2,0,2,862,2209,449,1158,71,71,0,71,0.60,3.40,0.75,1.88
2016-04-23 18:30:00,2,2734,71,1.48,2,2,0,2,927,5395,1444,2554,71,71,0,71,0.30,3.20,0.81,1.23
2016-04-23 18:40:00,2,2906,71,1.18,2,2,0,2,1359,4504,1064,2793,71,71,0,71,0.50,2.60,0.62,1.02
2016-04-23 18:50:00,2,2771,71,1.52,2,2,0,2,1206,5013,1208,2966,71,71,0,71,0.80,3.65,0.92,1.08
2016-04-23 19:00:00,2,1183,71,2.98,2,2,0,2,925,1912,279,1118,71,72,0,71,1.50,4.75,0.99,2.78
2016-04-23 19:10:00,2,5883,71,0.89,2,2,0,2,1755,10613,2566,6102,71,71,0,71,0.10,2.15,0.66,0.53
2016-04-23 19:20:00,2,5212,71,0.91,2,2,0,2,1436,9660,2256,5194,71,71,0,71,0.30,1.90,0.47,0.78
2016-04-23 19:30:00,2,3097,71,1.04,2,2,0,2,1080,5842,1455,2968,71,71,0,71,0.40,1.70,0.37,1.00
2016-04-23 19:40:00,2,3785,71,0.94,2,2,0,2,1567,11101,2618,3286,71,71,0,71,0.45,2.25,0.51,0.83
2016-04-23 19:50:00,2,2557,71,1.51,2,2,0,2,1165,4022,1080,2124,71,71,0,71,0.80,2.40,0.58,1.27
2016-04-23 20:00:00,2,4660,71,0.91,2,2,0,2,2172,7657,2042,4544,71,71,0,71,0.25,2.80,0.77,0.68
2016-04-23 20:10:00,2,3211,71,1.31,2,2,0,2,920,6594,1770,2434,71,71,0,71,0.20,2.00,0.55,1.43
2016-04-23 20:20:00,2,3821,71,1.15,2,2,0,2,1083,5610,1284,4324,71,71,0,71,0.55,3.50,0.86,0.80
2016-04-23 20:30:00,2,7625,71,0.78,2,2,0,2,2940,19781,4940,6025,71,71,0,71,0.00,1.90,0.58,0.77
2016-04-23 20:40:00,2,4535,71,0.89,2,2,0,2,2359,9588,2210,3498,71,71,0,71,0.20,1.75,0.62,0.75
2016-04-23 20:50:00,2,5735,71,0.40,2,2,0,2,3175,9152,1971,4820,71,71,0,71,0.10,0.90,0.21,0.38
2016-04-23 21:00:00,2,9636,71,0.29,2,2,0,2,7417,15031,2314,8798,71,71,0,71,0.10,1.05,0.27,0.17
2016-04-23 21:10:00,2,9517,71,0.44,2,2,0,2,3718,17159,3641,8656,71,71,0,71,0.10,1.20,0.30,0.42
2016-04-23 21:20:00,2,7399,71,0.59,2,2,0,2,2746,10933,2462,7588,71,71,0,71,0.15,1.95,0.55,0.35
2016-04-23 21:30:00,2,3682,71,0.97,2,2,0,2,1722,7064,1706,3330,71,71,0,71,0.35,1.95,0.46,1.05
2016-04-23 21:40:00,2,2251,71,1.41,2,2,0,2,830,8180,2059,1408,71,71,0,71,0.25,2.30,0.66,1.58
2016-04-23 21:50:00,2,2006,71,2.26,2,2,0,2,535,5366,1482,1432,71,71,0,71,0.40,4.05,1.16,1.97
2016-04-23 22:00:00,2,5560,71,0.73,2,2,0,2,3001,12736,2584,4832,71,71,0,71,0.00,1.45,0.43,0.80
2016-04-23 22:10:00,2,9904,71,0.33,2,2,0,2,4909,16013,3356,9800,71,71,0,71,0.05,0.80,0.25,0.30
2016-04-23 22:20:00,2,14232,71,0.22,2,2,0,2,4148,27438,5911,13073,71,71,0,71,0.00,0.80,0.24,0.12
2016-04-23 22:30:00,2,17376,71,0.12,2,2,0,2,8795,26823,5299,17279,71,71,0,71,0.00,0.35,0.11,0.10
2016-04-23 22:40:00,2,25798,50,0.02,2,2,0,2,16979,39846,8340,21970,0,71,33,71,0.00,0.15,0.05,0.00
2016-04-23 22:50:00,2,25689,28,0.01,2,2,0,2,11464,36335,7745,26293,0,71,35,0,0.00,0.05,0.02,0.00
2016-04-23 23:00:00,2,28972,0,0.00,2,2,0,2,17033,42373,7626,26594,0,0,0,0,0.00,0.00,0.00,0.00
2016-04-23 23:10:00,2,28847,7,0.00,2,2,0,2,8839,37530,8820,32036,0,71,21,0,0.00,0.00,0.00,0.00
2016-04-23 23:20:00,2,21404,64,0.12,2,2,0,2,6125,37078,8142,22312,0,71,21,71,0.00,0.50,0.17,0.03
2016-04-23 23:30:00,2,26603,14,0.01,2,2,0,2,10265,46623,9585,26440,0,71,28,0,0.00,0.05,0.02,0.00
2016-04-23 23:40:00,2,27039,21,0.00,2,2,0,2,9244,48587,12323,24955,0,71,33,0,0.00,0.00,0.00,0.00
2016-04-23 23:50:00,2,17609,50,0.12,2,2,0,2,7622,27724,6357,17660,0,71,33,71,0.00,0.75,0.22,0.03
